Regional Weather Roundup
Issued by NWS

Home | Current Version | Previous Version | Graphics & Text | Print | Product List | Glossary On
Versions: 1 2 3 4 5 6 7 8 9 10 11 12 13 14 15 16 17 18 19 20 21 22 23 24 25 26 27 28 29 30 31 32 33 34 35 36 37 38 39 40 41 42 43 44 45 46 47 48 49 50
000
ASUS43 KMKX 262321
RWRWI

WISCONSIN REGIONAL WEATHER ROUNDUP
NATIONAL WEATHER SERVICE MILWAUKEE/SULLIVAN WI
600 PM CDT WED JUL 26 2017

NOTE: "FAIR" INDICATES FEW OR NO CLOUDS BELOW 12,000 FEET WITH NO
SIGNIFICANT WEATHER AND/OR OBSTRUCTIONS TO VISIBILITY.

WIZ001-002-006>008-014>016-023>028-270000-
NORTHWEST WISCONSIN

CITY           SKY/WX    TMP DP  RH WIND       PRES   REMARKS
SUPERIOR ARPT  NOT AVBL
ASHLAND        SUNNY     81  61  50 NW10      29.96F HX  82
HAYWARD        SUNNY     81  60  48 NW7       29.98F HX  82
SIREN          SUNNY     81  58  46 NW6       29.99S HX  81
CUMBERLAND     MOSUNNY   77  59  53 NW7       30.00R
RICE LAKE      MOSUNNY   80  59  49 NW7       30.00S HX  81
CHETEK         SUNNY     81  62  53 NW5       29.98S HX  82
LADYSMITH      SUNNY     80  59  48 NW8       30.00S HX  81
EAU CLAIRE     CLOUDY    78  70  76 NW3       29.96S HX  80
MENOMONIE      SUNNY     80  65  60 NW9       29.98S HX  81
NEW RICHMOND   SUNNY     79  56  45 NW7       29.99S HX  80
OSCEOLA        MOSUNNY   82  59  46 N9        30.01S HX  82
$$

WIZ003>005-009-010-017-018-270000-
NORTH CENTRAL WISCONSIN

CITY           SKY/WX    TMP DP  RH WIND       PRES   REMARKS
MANITOWISH WTR SUNNY     78  59  52 N10       29.98S
ARBOR VITAE    SUNNY     80  60  51 N8        29.97S HX  81
WOODRUFF       SUNNY     80  60  51 N8        29.97S HX  81
RHINELANDER    MOSUNNY   80  60  50 NW8       29.98S HX  81
EAGLE RIVER    MOSUNNY   79  57  46 N9        29.96S HX  80
LAND O LAKES   SUNNY     78  53  41 NW8       30.00R
PHILLIPS       MOSUNNY   78  62  56 NW6       29.98R HX  80
TOMAHAWK       NOT AVBL
MEDFORD        PTSUNNY   73  68  82 SW3       29.98F
MERRILL        PTSUNNY   77  70  78 W7        29.98S
$$

WIZ029-030-035-036-043>047-270000-
CENTRAL WISCONSIN

CITY           SKY/WX    TMP DP  RH WIND       PRES   REMARKS
WAUSAU         CLOUDY    74  69  85 W9        29.96F
MOSINEE        PTSUNNY   75  70  83 W8        29.99F
MARSHFIELD     MOSUNNY   77  67  71 W8        29.97F
STEVENS POINT  CLOUDY    74  70  85 W7        29.98S
WAUPACA        CLOUDY    79  72  79 W5        29.97S HX  81
WAUTOMA        CLOUDY    79  72  79 SW7       29.97F HX  82
WISC RAPIDS    CLOUDY    76  70  82 VRB7      29.98F
CAMP DOUGLAS   PTSUNNY   79  72  78 CALM      29.95F HX  82
$$

WIZ011>013-019>022-031-037>040-048>050-270000-
NORTHEAST WISCONSIN

CITY           SKY/WX    TMP DP  RH WIND       PRES   REMARKS
ANTIGO         CLOUDY    75  69  82 W6        29.98S
SHAWANO        CLOUDY    78  69  73 W8        29.95S HX  80
OCONTO         CLOUDY    77  71  80 SW6       29.93F
STURGEON BAY     N/A     76  71  85 SW7       29.95F
GREEN BAY      CLOUDY    76  75  97 S8        29.95S
MANITOWOC      LGT RAIN  73  70  90 S10       29.96F
APPLETON       PTSUNNY   75  73  94 SW8       29.95S
CLINTONVILLE   CLOUDY   N/A N/A N/A SW8       29.96R
OSHKOSH        CLOUDY    75  72  90 SW8       29.96S
$$

WIZ032>034-041-042-053>061-270000-
SOUTHWEST WISCONSIN

CITY           SKY/WX    TMP DP  RH WIND       PRES   REMARKS
LA CROSSE      CLOUDY    83  72  69 NW5       29.94F HX  88
SPARTA         CLOUDY    78  70  74 NW5       29.96F HX  81
VIROQUA        CLOUDY    77  73  86 CALM      29.98S
BOSCOBEL       CLOUDY    79  74  84 N3        29.94F HX  82
PRAIRIE DU CHI CLOUDY    79  70  74 CALM      29.93S HX  81
PLATTEVILLE    MOSUNNY   79  75  89 CALM      29.97S HX  82
$$

WIZ056-057-062-063-064-067-068-270000-
SOUTH CENTRAL WISCONSIN

CITY           SKY/WX    TMP DP  RH WIND       PRES   REMARKS
REEDSBURG      CLOUDY    74  73  95 CALM      29.96S
BARABOO/DELLS  CLOUDY    74  71  89 SE3       29.97S
LONE ROCK      CLOUDY    75  73  93 SE3       29.95F
MINERAL POINT  CLOUDY    77  77 100 CALM      29.97F
MADISON        TSTM      72  71  97 CALM      29.97S FOG
MIDDLETON      CLOUDY    74  74 100 E9        29.97F
WATERTOWN      CLOUDY    74  74 100 SE5       29.97F
MONROE         CLOUDY    79  72  78 CALM      29.97F HX  82
JANESVILLE     CLOUDY    82  73  74 SW6       29.96F HX  88
$$

WIZ051-052-058>065-066-070>072-270000-
SOUTHEAST WISCONSIN

CITY           SKY/WX    TMP DP  RH WIND       PRES   REMARKS
MILWAUKEE      CLOUDY    74  70  87 N15G26    29.99R
WAUKESHA       CLOUDY    72  70  94 NE8       29.99F
MILWAUKEE/TIMM PTSUNNY   72  68  88 SE8       29.97F
RACINE         CLOUDY    78  70  76 S10       30.00S HX  80
KENOSHA        CLOUDY    81  69  67 SE9       29.98F HX  84
FOND DU LAC    LGT RAIN  75  70  84 CALM      29.96F
SHEBOYGAN      LGT RAIN  72  72 100 SE8       29.95F
WEST BEND      CLOUDY    72  70  94 E5        29.97F
JUNEAU         CLOUDY    72  70  94 CALM      30.00S
$$

LSZ147-162-270000-
LAKE SUPERIOR

STATION/POSITION TIME  TEMP    WIND        PRES    WAVE
                       AIR SEA DIR/SP/G            HT/PER
                 (UTC) (F)     (DEG/KT/KT) (MB)    (FT/S)
W MID LAKE BUOY  2250   59 53  240/ 10/ 10 1013.4F   1
DEVILS ISLAND    2300   70     240/ 13/ 15 1013.7F
SAXON HARBOR     2230   82      CALM  /  3 1014.2F
$$

LMZ867-665-643>646-270000-
LAKE MICHIGAN

STATION/POSITION TIME  TEMP    WIND        PRES    WAVE
                       AIR SEA DIR/SP/G            HT/PER
                 (UTC) (F)     (DEG/KT/KT) (MB)    (FT/S)
CHAMBERS ISLAND  2240   74     190/  6/ 13 1012.9F
S GREEN BAY BUOY 2300   73 72  200/  8/ 10 1013.5
N MID LAKE BUOY  2150   67 65  200/ 17/ 23 1014.0F   4/ 6
NORTHPORT PIER   2240   76     210/  6/ 10 1013.2F
KEWAUNEE LAKESHO 2300   69     180/ 11/ 13 1013.5
SHEBOYGAN LAKESH 2300   70     140/ 14/ 15 1013.5F
PORT WASHINGTON  2230   71     140/  6/  7 1016.9S
ATWATER BUOY     2209   69 69   10/ 12/ 16 1016.2R
MILWAUKEE LAKESH 2300   70     140/  5/  7   N/A
S MID LAKE BUOY  2250   73 71  130/  8/  8 1015.3F   1/ 4
KENOSHA   LAKESH 2300   74     170/  9/ 10 1014.9
$$

TC  - TEMPERATURE IN CELSIUS
VSB - VISIBILITY IN STATUTE MILES
WCI - WIND CHILL INDEX
HX  - HEAT INDEX





USA.gov is the U.S. government's official web portal to all federal, state and local government web resources and services.